Weather in Zamekhov

Ukraine / Khmelnitsky District     48°51′22″N   27°22′39″E
temp.,
°C
wind,
m/s
gust,
m/s
humid.,
%
clouds,
%
prec.,
mm/h
press.,
hPa
HPBL,
m
24 october, sun
sun2400:00+4wnw36685 0.0 1025119
03:00+3wnw410785 0.0 1026247
06:00+2wnw388992 0.0 1027166
09:00+5nw6107790 0.0 1029875
12:00+7nw796018 0.0 10301251
15:00+8nw7847100 0.1 10301668
18:00+8nnw6846100 0.0 1031962
21:00+5nnw3761100 0.0 1032134
25 october, mon
mon2500:00+4nw226291 0.0 103315
03:00+2nnw227121 0.0 103411
06:00+1n11775 0.0 103410
09:00+3e11690 0.0 103454
12:00+8sse33470 0.0 1034783
15:00+10sse33381 0.0 10321068
18:00+6se33480 0.0 103137
21:00+4se36545 0.0 103191
26 october, tue
tue2600:00+3se37565 0.0 1031115
03:00+2se37602 0.0 1031104
06:00+1se37665 0.0 1030112
09:00+2sse412633 0.0 1029367
12:00+9sse710420 0.0 1028748
15:00+12sse79360 0.0 1025992
18:00+8sse48490 0.0 1024143
21:00+5se37640 0.0 1025106
27 october, wed
wed2700:00+4se310770 0.0 1025183
03:00+3se38890 0.0 1024152
06:00+2sse229252 0.0 102421
09:00+3s2390100 0.0 1025109
12:00+9wnw3457100 0.0 1024528
15:00+12nw5738100 0.0 10231069
18:00+9nw335530 0.0 102422
21:00+8nw49718 0.0 1026244
28 october, thu
thu2800:00+4nw369193 0.0 102795
03:00+4nw359391 0.0 102890
06:00+4nnw22925 0.0 102927
09:00+5nw23865 0.0 103095
12:00+11wnw33570 0.0 1029646
15:00+14nw34462 0.0 10281266
18:00+10nw22615 0.0 102811
21:00+7wnw11735 0.0 102910